Location: Aldenham
(51.6667°N, 0.3500°W)
Time: 16:04:52
(UTC+00:00)

Vanguard 2 Rocket - Pass Details

Date: 21 February 2026
Orbit: 553 x 3286 km, 32.9° (Epoch: 11 March)

Event Time Altitude Azimuth Distance (km) Brightness Sun altitude
Rises 17:00:31 0° 268° (W) 6,549 12.9 3.1°
Reaches altitude 10° 17:07:30 10° 252° (WSW) 4,983 13.3 2.1°
Maximum altitude 17:14:34 16° 221° (SW) 3,802 11.1 1.0°
Drops below altitude 10° 17:20:03 10° 186° (S) 3,690 10.4 0.2°
Sets 17:24:02 0° 166° (SSE) 4,201 10.3 -0.4°
